Location: Baumgarten
(49.0970°N, 12.7493°E)
Time: 08:45:46
(UTC+00:00)

Cosmos 1703 - Pass Details

Date: 05 July 2020
Orbit: 525 x 539 km, 82.5° (Epoch: 04 August)

Event Time Altitude Azimuth Distance (km) Brightness Sun altitude
Exits shadow 20:15:29 - 187° (S) 2,590 6.3 -8.0°
Reaches altitude 10° 20:17:29 10° 186° (S) 1,763 5.5 -8.2°
Maximum altitude 20:21:21 85° 100° (E) 535 3.2 -8.6°
Drops below altitude 10° 20:25:16 10° 11° (N) 1,780 6.5 -9.0°
Sets 20:27:25 0° 11° (N) 2,675 7.5 -9.2°
